Location: Newark
(12.4436°N, 0.6167°W)
Time: 13:35:30
(UTC+00:00)

Vanguard 1 - Pass Details

Date: 13 December 2019
Orbit: 651 x 3832 km, 34.2° (Epoch: 23 January)

Event Time Altitude Azimuth Distance (km) Brightness Sun altitude
Rises 21:08:33 0° 179° (S) 4,878 13.8 -48.7°
Enters shadow 21:13:30 - 156° (SSE) 4,699 13.5 -49.9°
Reaches altitude 10° 21:16:47 10° 141° (SE) 4,845 - -50.6°
Maximum altitude 21:18:58 10° 132° (SE) 5,038 - -51.1°
Drops below altitude 10° 21:21:18 10° 123° (ESE) 5,314 - -51.6°
Sets 21:33:40 0° 90° (E) 7,345 - -54.4°
